| time (UTC) | temp F | wind direction | speed MPH | gust MPH | rain 1hr in | rain 24hr in | rain mn in | humidity % | barometer mb |
| 20260507191537 | 66 | 338 | 8.0 | 16.0 | 0.00 | 0.00 | 0.00 | 33 | 1012.0 |
| 20260507190043 | 65 | 336 | 9.0 | 16.0 | 0.00 | 0.00 | 0.00 | 35 | 1012.1 |
| 20260507184541 | 65 | 332 | 12.0 | 18.0 | 0.00 | 0.00 | 0.00 | 34 | 1012.0 |
| 20260507183101 | 65 | 297 | 7.0 | 14.0 | 0.00 | 0.00 | 0.00 | 35 | 1011.9 |
| 20260507181543 | 65 | 299 | 12.0 | 19.0 | 0.00 | 0.00 | 0.00 | 34 | 1011.9 |
| 20260507180050 | 65 | 318 | 5.0 | 14.0 | 0.00 | 0.00 | 0.00 | 36 | 1012.3 |
| 20260507174542 | 64 | 350 | 8.0 | 15.0 | 0.00 | 0.00 | 0.00 | 36 | 1012.4 |
| 20260507173054 | 64 | 352 | 8.0 | 15.0 | 0.00 | 0.00 | 0.00 | 38 | 1012.4 |
| 20260507171537 | 64 | 338 | 11.0 | 15.0 | 0.00 | 0.00 | 0.00 | 38 | 1012.7 |
| 20260507170047 | 63 | 304 | 10.0 | 15.0 | 0.00 | 0.00 | 0.00 | 40 | 1012.8 |
| 20260507164535 | 63 | 9 | 10.0 | 16.0 | 0.00 | 0.00 | 0.00 | 39 | 1013.0 |
| 20260507163043 | 63 | 9 | 9.0 | 14.0 | 0.00 | 0.00 | 0.00 | 40 | 1012.8 |
| 20260507161550 | 62 | 296 | 7.0 | 12.0 | 0.00 | 0.00 | 0.00 | 41 | 1012.8 |
| 20260507160036 | 61 | 0 | 2.0 | 7.0 | 0.00 | 0.00 | 0.00 | 43 | 1012.9 |
| 20260507154535 | 59 | 286 | 1.0 | 6.0 | 0.00 | 0.00 | 0.00 | 46 | 1012.8 |
| 20260507153045 | 57 | 278 | 3.0 | 8.0 | 0.00 | 0.00 | 0.00 | 46 | 1012.8 |
| 20260507151542 | 54 | 263 | 3.0 | 8.0 | 0.00 | 0.00 | 0.00 | 49 | 1012.7 |
| 20260507150039 | 52 | 284 | 3.0 | 7.0 | 0.00 | 0.00 | 0.00 | 52 | 1012.5 |
| 20260507144539 | 51 | 119 | 3.0 | 4.0 | 0.00 | 0.00 | 0.00 | 55 | 1012.3 |
| 20260507143056 | 50 | 94 | 3.0 | 4.0 | 0.00 | 0.00 | 0.00 | 57 | 1012.3 |
| 20260507141542 | 49 | 90 | 2.0 | 4.0 | 0.00 | 0.00 | 0.00 | 61 | 1012.2 |
| 20260507140039 | 48 | 0 | 0.0 | 3.0 | 0.00 | 0.00 | 0.00 | 58 | 1012.3 |
| 20260507134537 | 47 | 49 | 2.0 | 4.0 | 0.00 | 0.00 | 0.00 | 58 | 1012.2 |
| 20260507133047 | 46 | 46 | 2.0 | 3.0 | 0.00 | 0.00 | 0.00 | 59 | 1012.1 |
| 20260507131545 | 45 | 46 | 1.0 | 5.0 | 0.00 | 0.00 | 0.00 | 59 | 1012.0 |
| 20260507130058 | 46 | 34 | 5.0 | 9.0 | 0.00 | 0.00 | 0.00 | 57 | 1012.1 |
| 20260507124541 | 46 | 0 | 0.0 | 0.0 | 0.00 | 0.00 | 0.00 | 57 | 1011.8 |
| 20260507123035 | 47 | 0 | 0.0 | 3.0 | 0.00 | 0.00 | 0.00 | 55 | 1011.4 |
| 20260507121535 | 47 | 13 | 2.0 | 5.0 | 0.00 | 0.00 | 0.00 | 56 | 1011.7 |
| 20260507120042 | 47 | 319 | 3.0 | 5.0 | 0.00 | 0.00 | 0.00 | 54 | 1011.6 |
| 20260507114540 | 47 | 236 | 0.0 | 3.0 | 0.00 | 0.00 | 0.00 | 53 | 1011.3 |
| 20260507113039 | 46 | 0 | 0.0 | 3.0 | 0.00 | 0.00 | 0.00 | 52 | 1011.4 |
| 20260507111536 | 47 | 0 | 1.0 | 5.0 | 0.00 | 0.00 | 0.00 | 51 | 1011.4 |
| 20260507110055 | 47 | 246 | 3.0 | 7.0 | 0.00 | 0.00 | 0.00 | 51 | 1011.3 |
| 20260507104549 | 46 | 239 | 5.0 | 7.0 | 0.00 | 0.00 | 0.00 | 52 | 1011.1 |
| 20260507103106 | 45 | 219 | 2.0 | 5.0 | 0.00 | 0.00 | 0.00 | 51 | 1010.9 |
| 20260507101540 | 46 | 219 | 3.0 | 7.0 | 0.00 | 0.00 | 0.00 | 51 | 1010.8 |
| 20260507100048 | 46 | 223 | 4.0 | 8.0 | 0.00 | 0.00 | 0.00 | 52 | 1010.8 |
| 20260507094538 | 46 | 237 | 5.0 | 7.0 | 0.00 | 0.00 | 0.00 | 52 | 1010.6 |
| 20260507093043 | 47 | 175 | 3.0 | 5.0 | 0.00 | 0.00 | 0.00 | 49 | 1010.4 |
| 20260507091544 | 47 | 173 | 1.0 | 3.0 | 0.00 | 0.00 | 0.00 | 48 | 1010.4 |
| 20260507090039 | 47 | 0 | 0.0 | 5.0 | 0.00 | 0.00 | 0.00 | 48 | 1010.0 |
| 20260507084545 | 48 | 0 | 0.0 | 3.0 | 0.00 | 0.00 | 0.00 | 47 | 1010.0 |
| 20260507083035 | 48 | 172 | 1.0 | 6.0 | 0.00 | 0.00 | 0.00 | 47 | 1009.8 |
| 20260507081536 | 49 | 171 | 5.0 | 8.0 | 0.00 | 0.00 | 0.00 | 49 | 1009.6 |
| 20260507080047 | 50 | 163 | 5.0 | 7.0 | 0.00 | 0.00 | 0.00 | 52 | 1009.3 |
| 20260507074538 | 51 | 103 | 1.0 | 7.0 | 0.00 | 0.00 | 0.00 | 51 | 1009.4 |
| 20260507073042 | 52 | 99 | 1.0 | 7.0 | 0.00 | 0.00 | 0.00 | 50 | 1009.4 |
| 20260507071535 | 53 | 69 | 4.0 | 13.0 | 0.00 | 0.00 | 0.00 | 50 | 1009.4 |
| 20260507070051 | 53 | 49 | 4.0 | 13.0 | 0.00 | 0.00 | 0.00 | 48 | 1009.0 |
| 20260507064549 | 51 | 117 | 4.0 | 10.0 | 0.00 | 0.00 | 0.00 | 50 | 1008.6 |
| 20260507063037 | 51 | 112 | 3.0 | 8.0 | 0.00 | 0.00 | 0.00 | 47 | 1008.3 |
| 20260507061537 | 53 | 360 | 5.0 | 10.0 | 0.00 | 0.00 | 0.00 | 45 | 1007.9 |
| 20260507060037 | 55 | 340 | 7.0 | 13.0 | 0.00 | 0.00 | 0.00 | 45 | 1007.6 |
| 20260507054547 | 58 | 329 | 12.0 | 20.0 | 0.00 | 0.00 | 0.00 | 43 | 1007.5 |
| 20260507053046 | 60 | 339 | 12.0 | 22.0 | 0.00 | 0.00 | 0.00 | 43 | 1007.7 |
| 20260507051543 | 60 | 348 | 6.0 | 16.0 | 0.00 | 0.00 | 0.00 | 43 | 1007.3 |
| 20260507050043 | 62 | 311 | 13.0 | 19.0 | 0.00 | 0.00 | 0.00 | 41 | 1007.0 |
| 20260507044539 | 63 | 294 | 14.0 | 21.0 | 0.00 | 0.00 | 0.00 | 39 | 1006.8 |
| 20260507043035 | 63 | 287 | 14.0 | 22.0 | 0.00 | 0.00 | 0.00 | 39 | 1006.9 |
| 20260507041555 | 64 | 290 | 16.0 | 20.0 | 0.00 | 0.00 | 0.00 | 39 | 1007.0 |
| 20260507040042 | 64 | 284 | 15.0 | 22.0 | 0.00 | 0.00 | 0.00 | 38 | 1006.9 |
| 20260507034536 | 64 | 282 | 15.0 | 21.0 | 0.00 | 0.00 | 0.00 | 38 | 1006.8 |
| 20260507033038 | 64 | 286 | 12.0 | 19.0 | 0.00 | 0.00 | 0.00 | 38 | 1006.8 |
| 20260507031543 | 64 | 289 | 11.0 | 17.0 | 0.00 | 0.00 | 0.00 | 38 | 1007.0 |
| 20260507030043 | 63 | 301 | 5.0 | 12.0 | 0.00 | 0.00 | 0.00 | 38 | 1007.2 |
| 20260507024541 | 63 | 153 | 2.0 | 6.0 | 0.00 | 0.00 | 0.00 | 41 | 1007.2 |
| 20260507023037 | 64 | 155 | 3.0 | 8.0 | 0.00 | 0.00 | 0.00 | 40 | 1007.3 |
| 20260507021538 | 65 | 0 | 0.0 | 7.0 | 0.00 | 0.00 | 0.00 | 39 | 1007.3 |
| 20260507020045 | 66 | 60 | 3.0 | 14.0 | 0.00 | 0.00 | 0.00 | 38 | 1007.3 |
| 20260507014552 | 67 | 22 | 5.0 | 17.0 | 0.00 | 0.00 | 0.00 | 39 | 1007.2 |
| 20260507013043 | 69 | 331 | 4.0 | 12.0 | 0.00 | 0.00 | 0.00 | 24 | 1007.2 |
| 20260507011542 | 69 | 40 | 1.0 | 5.0 | 0.00 | 0.00 | 0.00 | 22 | 1006.8 |
| 20260507010042 | 70 | 32 | 2.0 | 5.0 | 0.00 | 0.00 | 0.00 | 21 | 1007.1 |
| 20260507004536 | 70 | 28 | 2.0 | 6.0 | 0.00 | 0.00 | 0.00 | 20 | 1007.2 |
| 20260507003036 | 71 | 355 | 4.0 | 9.0 | 0.00 | 0.00 | 0.00 | 21 | 1007.3 |
| 20260507001553 | 72 | 5 | 5.0 | 11.0 | 0.00 | 0.00 | 0.00 | 20 | 1007.3 |
| 20260507000038 | 72 | 16 | 8.0 | 16.0 | 0.00 | 0.00 | 0.00 | 20 | 1007.4 |
| 20260506234601 | 72 | 355 | 9.0 | 24.0 | 0.00 | 0.00 | 0.00 | 19 | 1007.6 |
| 20260506233039 | 73 | 334 | 10.0 | 21.0 | 0.00 | 0.00 | 0.00 | 19 | 1007.7 |
| 20260506231537 | 72 | 318 | 11.0 | 21.0 | 0.00 | 0.00 | 0.00 | 20 | 1008.0 |
| 20260506230052 | 72 | 299 | 9.0 | 20.0 | 0.00 | 0.00 | 0.00 | 20 | 1008.1 |
| 20260506224540 | 72 | 328 | 13.0 | 22.0 | 0.00 | 0.00 | 0.00 | 19 | 1008.0 |
| 20260506223042 | 72 | 352 | 14.0 | 20.0 | 0.00 | 0.00 | 0.00 | 19 | 1008.2 |
| 20260506221552 | 72 | 355 | 8.0 | 23.0 | 0.00 | 0.00 | 0.00 | 20 | 1008.3 |
| 20260506220049 | 71 | 339 | 10.0 | 20.0 | 0.00 | 0.00 | 0.00 | 21 | 1008.5 |
| 20260506214544 | 71 | 343 | 4.0 | 20.0 | 0.00 | 0.00 | 0.00 | 20 | 1008.6 |
| 20260506213048 | 71 | 338 | 15.0 | 20.0 | 0.00 | 0.00 | 0.00 | 21 | 1008.7 |
| 20260506211549 | 70 | 288 | 9.0 | 24.0 | 0.00 | 0.00 | 0.00 | 21 | 1009.1 |
| 20260506210046 | 70 | 344 | 11.0 | 19.0 | 0.00 | 0.00 | 0.00 | 20 | 1009.2 |
| 20260506204539 | 70 | 323 | 6.0 | 15.0 | 0.00 | 0.00 | 0.00 | 22 | 1009.2 |
| 20260506203045 | 69 | 277 | 7.0 | 21.0 | 0.00 | 0.00 | 0.00 | 25 | 1009.2 |
| 20260506201545 | 68 | 164 | 2.0 | 9.0 | 0.00 | 0.00 | 0.00 | 25 | 1009.5 |
| 20260506200045 | 67 | 107 | 2.0 | 14.0 | 0.00 | 0.00 | 0.00 | 24 | 1009.5 |
| 20260506194544 | 65 | 265 | 4.0 | 10.0 | 0.00 | 0.00 | 0.00 | 25 | 1009.9 |
| 20260506193046 | 64 | 291 | 5.0 | 13.0 | 0.00 | 0.00 | 0.00 | 26 | 1010.3 |